CW4745 Weather Reports


Display with metric or nautical units.
time (UTC)temp
F
wind
direction
speed
MPH
gust
MPH
rain 1hr
in
rain 24hr
in
rain mn
in
humidity
%
barometer
mb
20170821005306 53 0 0.0 0.0 0.00 0.02 0.00 88 1022.7
20170821004306 54 0 0.0 0.0 0.00 0.02 0.00 88 1022.7
20170821003305 54 0 0.0 0.0 0.00 0.02 0.00 87 1022.6
20170821002305 54 0 0.0 0.0 0.00 0.02 0.00 87 1022.7
20170821001301 54 0 0.0 0.0 0.00 0.02 0.00 86 1022.6
20170821000301 55 0 0.0 0.0 0.00 0.02 0.00 85 1022.6
20170820235259 55 0 0.0 0.0 0.00 0.02 0.00 84 1022.7
20170820234300 56 0 0.0 0.0 0.00 0.02 0.00 84 1022.8
20170820233300 56 0 0.0 0.0 0.00 0.02 0.00 84 1022.8
20170820232259 56 0 0.0 0.0 0.00 0.02 0.00 83 1023.0
20170820231258 57 0 0.0 0.0 0.00 0.02 0.00 83 1022.8
20170820230257 57 0 0.0 0.0 0.00 0.02 0.00 83 1022.8
20170820225257 57 0 0.0 0.0 0.00 0.02 0.00 82 1022.9
20170820224258 58 0 0.0 0.0 0.00 0.02 0.00 81 1022.7
20170820223257 58 0 0.0 0.0 0.00 0.02 0.00 80 1022.7
20170820222258 58 0 0.0 0.0 0.00 0.02 0.00 79 1022.6
20170820221258 59 0 0.0 0.0 0.00 0.02 0.00 77 1023.0
20170820220257 59 0 0.0 0.0 0.00 0.02 0.00 76 1022.7
20170820215257 59 0 0.0 0.0 0.00 0.02 0.02 76 1022.8
20170820214258 59 0 0.0 0.0 0.00 0.02 0.02 76 1022.9
20170820213258 60 0 0.0 0.0 0.00 0.02 0.02 75 1022.8
20170820212257 60 0 0.0 0.0 0.00 0.02 0.02 74 1022.9
20170820211257 60 0 0.0 0.0 0.00 0.02 0.02 74 1023.0
20170820210300 60 0 0.0 0.0 0.00 0.02 0.02 74 1023.0
20170820205257 60 0 0.0 0.0 0.00 0.02 0.02 74 1022.8
20170820204256 60 0 0.0 0.0 0.00 0.02 0.02 73 1022.7
20170820203257 60 0 0.0 0.0 0.00 0.02 0.02 73 1022.7
20170820202257 60 0 0.0 0.0 0.00 0.02 0.02 72 1022.7
20170820201257 60 0 0.0 0.0 0.00 0.02 0.02 72 1022.8
20170820200255 60 0 0.0 0.0 0.00 0.02 0.02 72 1022.8
20170820195255 60 0 0.0 0.0 0.00 0.03 0.02 72 1022.8
20170820194256 60 0 0.0 0.0 0.00 0.03 0.02 71 1022.8
20170820193254 61 0 0.0 0.0 0.00 0.03 0.02 71 1022.8
20170820192254 61 0 0.0 0.0 0.00 0.03 0.02 71 1022.8
20170820191255 61 0 0.0 0.0 0.00 0.03 0.02 71 1022.9
20170820190255 61 0 0.0 0.0 0.00 0.03 0.02 71 1022.8
20170820185255 61 0 0.0 0.0 0.00 0.03 0.02 71 1022.8
20170820184256 61 0 0.0 0.0 0.00 0.04 0.02 71 1022.6
20170820183257 62 0 0.0 0.0 0.00 0.04 0.02 70 1022.7
20170820182256 62 0 0.0 0.0 0.00 0.04 0.02 70 1022.5
20170820181256 62 0 0.0 0.0 0.00 0.06 0.02 69 1022.4
20170820180256 62 0 0.0 0.0 0.00 0.06 0.02 71 1022.5
20170820175254 62 0 0.0 0.0 0.00 0.06 0.02 73 1022.4
20170820174255 63 0 0.0 0.0 0.00 0.06 0.02 73 1022.4
20170820173255 63 0 0.0 0.0 0.00 0.06 0.02 72 1022.5
20170820172255 63 0 0.0 0.0 0.00 0.06 0.02 72 1022.5
20170820171253 63 0 0.0 0.0 0.00 0.06 0.02 72 1022.5
20170820170255 64 0 0.0 0.0 0.00 0.06 0.02 71 1022.5
20170820165253 64 0 0.0 0.0 0.00 0.06 0.02 71 1022.4
20170820164250 64 0 0.0 0.0 0.00 0.06 0.02 69 1022.3
20170820163251 64 0 0.0 0.0 0.00 0.06 0.02 68 1022.2
20170820162250 64 0 0.0 0.0 0.00 0.06 0.02 67 1022.3
20170820161251 64 0 0.0 0.0 0.00 0.06 0.02 69 1022.4
20170820160252 65 0 0.0 0.0 0.00 0.06 0.02 67 1022.5
20170820155252 65 0 0.0 0.0 0.00 0.06 0.02 68 1022.5
20170820154251 65 0 0.0 0.0 0.00 0.06 0.02 68 1022.6
20170820153251 64 0 0.0 0.0 0.00 0.06 0.02 69 1022.7
20170820152251 64 0 0.0 0.0 0.00 0.06 0.02 72 1022.6
20170820151251 65 0 0.0 0.0 0.00 0.06 0.02 71 1022.6
20170820150250 64 0 0.0 0.0 0.00 0.06 0.02 71 1022.6
20170820145250 64 0 0.0 0.0 0.00 0.06 0.02 71 1022.6
20170820144247 64 0 0.0 0.0 0.00 0.06 0.02 72 1022.6
20170820143249 64 0 0.0 0.0 0.00 0.06 0.02 72 1022.5
20170820142249 63 0 0.0 0.0 0.00 0.06 0.02 72 1022.5
20170820141249 64 0 0.0 0.0 0.00 0.06 0.02 71 1022.4
20170820140249 65 0 0.0 0.0 0.00 0.06 0.02 70 1022.4
20170820135249 65 0 0.0 0.0 0.00 0.06 0.02 69 1022.2
20170820134248 66 0 0.0 0.0 0.00 0.06 0.02 67 1022.3
20170820133249 66 0 0.0 0.0 0.00 0.06 0.02 68 1022.2
20170820132248 66 0 0.0 0.0 0.00 0.06 0.02 67 1022.1
20170820131247 66 0 0.0 0.0 0.00 0.06 0.02 68 1022.1
20170820130247 66 0 0.0 0.0 0.00 0.06 0.02 67 1022.1
20170820125248 67 0 0.0 0.0 0.00 0.06 0.02 67 1022.1
20170820124247 67 0 0.0 0.0 0.00 0.06 0.02 65 1022.0
20170820123244 67 0 0.0 0.0 0.00 0.06 0.02 66 1021.8
20170820122246 67 0 0.0 0.0 0.00 0.06 0.02 65 1021.8
20170820121252 67 0 0.0 0.0 0.00 0.06 0.02 66 1021.7
20170820120245 67 0 0.0 0.0 0.00 0.06 0.02 66 1021.6
20170820115245 67 0 0.0 0.0 0.00 0.06 0.02 68 1021.4
20170820114249 65 0 0.0 0.0 0.00 0.06 0.02 69 1021.4
20170820113243 65 0 0.0 0.0 0.00 0.06 0.02 70 1021.3
20170820112243 65 0 0.0 0.0 0.00 0.06 0.02 71 1021.4
20170820111243 65 0 0.0 0.0 0.00 0.06 0.02 68 1021.2
20170820110244 66 0 0.0 0.0 0.00 0.06 0.02 71 1021.2
20170820105240 65 0 0.0 0.0 0.00 0.06 0.02 69 1021.1
20170820104240 67 0 0.0 0.0 0.00 0.06 0.02 66 1021.1
20170820103240 67 0 0.0 0.0 0.00 0.06 0.02 67 1020.9
20170820102240 68 0 0.0 0.0 0.00 0.06 0.02 67 1020.8
20170820101239 66 0 0.0 0.0 0.00 0.07 0.02 67 1020.5
20170820100239 67 0 0.0 0.0 0.00 0.07 0.02 66 1020.5
20170820095239 67 0 0.0 0.0 0.00 0.07 0.02 68 1020.5
20170820094239 65 0 0.0 0.0 0.01 0.07 0.02 71 1020.5
20170820093239 66 0 0.0 0.0 0.01 0.07 0.02 69 1020.5
20170820092241 67 0 0.0 0.0 0.01 0.07 0.02 68 1020.4
20170820091239 66 0 0.0 0.0 0.01 0.07 0.02 69 1020.5
20170820090238 65 0 0.0 0.0 0.01 0.07 0.02 68 1020.4
20170820085239 66 0 0.0 0.0 0.01 0.07 0.02 69 1020.3
20170820084237 65 0 0.0 0.0 0.00 0.06 0.02 69 1020.2
20170820083237 65 0 0.0 0.0 0.00 0.06 0.01 69 1019.9
20170820082236 65 0 0.0 0.0 0.00 0.06 0.01 71 1019.8
20170820081236 65 0 0.0 0.0 0.00 0.06 0.01 71 1019.7
20170820080236 64 0 0.0 0.0 0.00 0.06 0.01 71 1019.6
20170820075236 63 0 0.0 0.0 0.00 0.06 0.01 72 1019.5
20170820074237 63 0 0.0 0.0 0.00 0.06 0.01 73 1019.5
20170820073237 62 0 0.0 0.0 0.00 0.06 0.01 74 1019.3
20170820072237 63 0 0.0 0.0 0.00 0.06 0.01 74 1019.2
20170820071237 62 0 0.0 0.0 0.00 0.06 0.01 75 1019.2
20170820070237 62 0 0.0 0.0 0.00 0.06 0.01 75 1019.1
20170820065237 63 0 0.0 0.0 0.00 0.06 0.01 75 1019.0
20170820064236 62 0 0.0 0.0 0.00 0.06 0.01 75 1018.9
20170820063236 61 0 0.0 0.0 0.00 0.06 0.01 77 1018.8
20170820062234 61 0 0.0 0.0 0.00 0.06 0.01 79 1018.8
20170820061235 60 0 0.0 0.0 0.00 0.06 0.01 78 1018.7
20170820060235 60 0 0.0 0.0 0.01 0.06 0.01 79 1018.5
20170820055238 60 0 0.0 0.0 0.01 0.06 0.01 79 1018.5
20170820054233 59 0 0.0 0.0 0.01 0.06 0.01 82 1018.3
20170820053233 59 0 0.0 0.0 0.01 0.06 0.01 82 1018.2
20170820052232 58 0 0.0 0.0 0.01 0.06 0.01 85 1018.2
20170820051234 59 0 0.0 0.0 0.01 0.06 0.01 85 1018.2
20170820050237 59 0 0.0 0.0 0.00 0.06 0.00 83 1018.3
20170820045234 60 0 0.0 0.0 0.00 0.06 0.00 79 1018.1
20170820044235 60 0 0.0 0.0 0.00 0.06 0.00 79 1018.1
20170820043233 60 0 0.0 0.0 0.00 0.06 0.00 77 1017.9
20170820042233 60 0 0.0 0.0 0.00 0.06 0.00 78 1017.8
20170820041234 60 0 0.0 0.0 0.00 0.06 0.00 77 1017.9
20170820040233 60 0 0.0 0.0 0.00 0.06 0.00 77 1017.9
20170820035234 60 0 0.0 0.0 0.00 0.06 0.00 76 1017.9
20170820034233 60 0 0.0 0.0 0.00 0.06 0.00 76 1017.7
20170820033233 61 0 0.0 0.0 0.00 0.06 0.00 77 1017.7
20170820032232 60 0 0.0 0.0 0.00 0.06 0.00 77 1017.8
20170820031233 60 0 0.0 0.0 0.00 0.06 0.00 77 1017.8
20170820030233 60 0 0.0 0.0 0.00 0.08 0.00 76 1017.6
20170820025231 60 0 0.0 0.0 0.00 0.11 0.00 76 1017.5
20170820024231 60 0 0.0 0.0 0.00 0.16 0.00 76 1017.5
20170820023232 60 0 0.0 0.0 0.00 0.18 0.00 76 1017.5
20170820022230 60 0 0.0 0.0 0.00 0.20 0.00 75 1017.4
20170820021231 60 0 0.0 0.0 0.00 0.24 0.00 75 1017.4
20170820020230 60 0 0.0 0.0 0.00 0.24 0.00 75 1017.4
20170820015230 60 0 0.0 0.0 0.00 0.25 0.00 74 1017.3
20170820014229 60 0 0.0 0.0 0.00 0.25 0.00 74 1017.3
20170820013230 60 0 0.0 0.0 0.00 0.25 0.00 74 1017.2
20170820012229 60 0 0.0 0.0 0.00 0.25 0.00 74 1017.2
20170820011229 60 0 0.0 0.0 0.00 0.25 0.00 74 1017.2
20170820010228 60 0 0.0 0.0 0.00 0.25 0.00 73 1017.2